Погода Покровская

Погода Покровская : погода сейчас, прогноз погоды и архив. Всё, что Вы хотите узнать о погоде Покровская!

Хотите узнать прогноз погоды Покровская? Тогда Вам сюда: Погода Покровская

Поиск расширенной информации на нашем сайте:

Другие новости

Новости СМИ2

Главная страница сайта

Новости сайта

02.10.2013

Напоминаем, что на нашем новом сайте вы можете получить высокодетализированные прогнозы погоды по пунктам России, СНГ и мира (включающие важные для авиации метеовеличины, такие как направление и скорость ветра, видимость, явления погоды, количество и форма облачности, нижняя и верхняя граница облачности), а также ознакомиться с разнообразными материалами по авиационной метеорологии и подборкой полезных ссылок на эту тему.

Сайт Метеоцентр.Азия посвящён разработке технологий оптимизации авиаметеорологического обслуживания, включая проектирование и перспективное создание нескольких автоматизированных авиаметеорологических систем:
- система выпуска высокодетальных прогностических карт явлений погоды для нижнего воздушного пространства по России и ближнему зарубежью;
- система верификации прогнозов TAF (выпускаемых синоптиками официальных АМСГ РФ и ближнего зарубежья) и AUTOTAF (выпускаемых сайтом Метеоцентр.Азия) - выявление ошибок, онлайн-сопоставление с фактической погодой METAR, автоматическое внесение коррективов в прогнозы при резком отклонении фактической погоды от прогноза, подсчёт оправдываемости прогнозов по элементам и в целом;
- система обработки, анализа и отображения авиаметеорологической информации для применения провайдерами метеорологической информации.

Рекомендуем: Насколько актуальны услуги прачечных.

Погода Покровская - сегодня

Время (UTC), дата Ветер
(°,м/с) 
Видим.   Явления Облачность Т
(°С)
Тd
(°С)
f(%) Тe
(°С)
Pmin
(гПа)
dP
(гПа)
Po
(мм)
O2
(г/м3)
Тmin Tmax R s Состояние
почвы
12 25.05.17 340 (С) 3{10}  20000 м    6/4 1000 м средняя 
[Sc diur, vesp|Ac trans]
+11.2 -3.8 35 +11  1000.3  3.1  740  287    +17       
15 25.05.17 280 (З) 20000 м    3/3 1000 м 
[Sc diur, vesp]
+3.1 -2.7 66 +3  1003.3  2.5  741  296           
18 25.05.17 250 (З) 20000 м    ясно 
-1.9 -4.7 81 -4  1004.3  0.6  742  302           
21 25.05.17 250 (З) 20000 м    ясно 
+2.3 -3.3 66 +3  1004.4  0.4  742  297           
00 26.05.17 170 (Ю) 20000 м    8/0 средняя, верхняя 
[Ac trans|Ci fib]
+11 +0.9 50 +12  1003.2  -0.7  742  287  -1.9        сухая 
03 26.05.17 140 (ЮВ) 20000 м    8/0 средняя, верхняя 
[Ac trans|Cs]
+13.6 -1.5 35 +14  1001.7  1.3  741  284           
06 26.05.17 050 (СВ) 20000 м    8/0 средняя, верхняя 
[Ac trans|Ci fib]
+15.8 -1.9 30 +16  999.1  -2.5  739  282           
09 26.05.17 220 (ЮЗ) 20000 м  слаб. дождь  10/10 600 м 
[Ns]
+13.6 +4.5 54 +13  999.3  0.1  741  284           
12 26.05.17 150 (ЮВ) 20000 м  {дождь}  8/8 1000 м 
[Sc]
+11.5 +9.3 86 +14  998.2  -1.2  738  284    +18.2  0.0     
15 26.05.17 220 (ЮЗ) 20000 м  {дождь}  8/8 1000 м 
[Sc]
+11 +7.7 80 +10  997.9  -0.3  738  284           
18 26.05.17 260 (З) 1{11}  20000 м    8/8 1000 м 
[Sc]
+8.7 +4.6 75 +10  1001.3  3.3  740  288           
21 26.05.17 260 (З) 20000 м    ясно 
+9.4 +3.4 66 +8  1003.3  1.9  742  288           
00 27.05.17 260 (З) 5{11}  20000 м    6/6 600 м 
[Cu med, cong]
+11.3 -1 42 +10  1003.9  0.7  742  287  +8.7        сухая 
06 27.05.17 210 (ЮЗ) 6{15}  20000 м    3/3 600 м 
[Cu hum]
+16.6 -4.7 23 +16  1003.7  -0.1  742  282           
09 27.05.17 270 (З) 4{13}  20000 м    1/1 600 м 
[Cu hum]
+17.6 -5.8 20 +18  1003.4  -0.3  742  281           
12 27.05.17 060 (СВ) 20000 м    ясно 
+14.1 -2.9 31 +15  1004.2  0.6  742  285    +18.6       
15 27.05.17 тихо ()   20000 м    ясно 
+3 -3.5 62 +3  1004.5  -0.2  742  296           
18 27.05.17 250 (З) 20000 м    3/0 средняя 
[Ac trans]
-1.8 -5.5 76 -3  1004.9  742  302           
21 27.05.17 020 (С) 20000 м    3/0 средняя 
[Ac trans]
+6.8 -1.5 55 +7  1004.4  0.1  742  292           
00 28.05.17 030 (СВ) 20000 м    8/0 верхняя 
[Ci fib]
+12.3 -1.1 39 +12  1004  -0.2  742  286  -2        влажная 
03 28.05.17 040 (СВ) 20000 м    8/0 верхняя 
[Ci sp]
+17.8 -2.6 25 +18  1002.3  -1.4  741  281           
06 28.05.17 040 (СВ) 20000 м    10/0 верхняя 
[Cs]
+19 -3.4 22 +19  1000.3  -1.9  740  279           
09 28.05.17 040 (СВ) 20000 м    10/0 верхняя 
[Cs]
+17.1 -1.9 27 +17  999.9  -0.4  739  281           
12 28.05.17 040 (СВ) 20000 м    10/6 1000 м средняя 
[Sc|As op]
+14.8 -3.2 29 +15  1000.4  0.4  740  283    +19.3       
15 28.05.17 030 (СВ) 20000 м    10/8 1000 м средняя 
[Sc|As op]
+12.4 -2.4 36 +12  1000  -0.6  739  285           
Время (UTC), дата Ветер
(°,м/с) 
Видим.   Явления Облачность Т
(°С)
Тd
(°С)
f(%) Тe
(°С)
Pmin
(гПа)
dP
(гПа)
Po
(мм)
O2
(г/м3)
Тmin Tmax R s Состояние
почвы

Для получения пояснительной информации подведите курсор к названию столбца.

ПОГОДА Покровская - архив

Всё, что Вы хотите узнать о погоде Покровская - удобно и подробно!

Выберите нужную дату (начиная с 1 января 2015* года) и нажмите кнопку "Найти".
Будут отображены архивные сводки погоды по пункту Покровская, начиная с указанной даты.


Отображать данные в формате CSV (для использования в таблицах Excel)


Внимание! Наш архив погоды предназначен исключительно для личного некоммерческого использования в познавательных целях. Если Вам необходимы официальные справки о состоянии погоды (для производственных, юридических, коммерческих и т.п. целей), обращайтесь в органы Росгидромета.

*Примечание: данная дата относится к архиву по метеостанциям СССР (Россия, СНГ, Балтия).
Архив по метеостанциям Зарубежной Европы и Азии (кроме Китая) хранится 10 дней, по другим регионам земного шара (Китай, Африка, Америка, Австралия, Океания) - 1 день.

Покровская - район местоположения метеостанции


Название, широта, долгота, высота метеостанции:
Покровская 61.5°ш. 129.2°д. 115 м над ур. моря [Российская Федерация]

Дополнительная информация

В oтличие oт бoльшинства пoгoдных сайтoв мы публикуем пoдрoбную метеoинфoрмацию в детальнoм прoфессиoнальнoм фoрмате.

Характеристики температуры и влажнoсти вoздуха измеряются на высoте 2 м в тени вдали oт зданий и деревьев.
Скoрoсть ветра измеряется на высoте 10 м (на урoвне рoста челoвека скoрoсть ветра ниже в 1.5-2 раза). Если метеoстанция нахoдится в гoрoде или в лесу, тo скoрoсть ветра занижена на 2-4 м/с пo сравнению с oткрытым местoм. Скoрoсть ветра над акватoриями крупных рек и oзёр, а также на вершинах хoлмoв на 2-5 м/с выше, чем в oбычных услoвиях.
Атмoсфернoе давление в разных тoчках местнoсти мoжет значительнo oтличаться oт давления на метеoстанции, в зависимoсти oт услoвий рельефа (при пoдъёме на 10 м давление пoнижается примернo на 1 мм рт.ст.).